Weather History for Kokomo, IN

Change the Weather History Date:

Thursday, October 4, 2012

  Actual Average (KGUS) Record (KGUS)
Temperature  
Mean Temperature 66 °F -  
Max Temperature 78 °F 66 °F 86 °F (2005)
Min Temperature 53 °F 46 °F 33 °F (1996)
Growing Degree Days 16 (Base 50)    
Moisture  
Dew Point 53 °F    
Average Humidity 67    
Maximum Humidity 88    
Minimum Humidity 42    
Precipitation  
Precipitation 0.00 in - - ()
Sea Level Pressure  
Sea Level Pressure 30.10 in    
Wind  
Wind Speed 10 mph (SW)    
Max Wind Speed 23 mph    
Max Gust Speed 30 mph    
Visibility 10 miles    
Events      
Averages and records for this station are not official NWS values.
T = Trace of Precipitation, MM = Missing Value Source: NWS Daily Summary

Daily Weather History Graph

Daily Weather History Graph

Search for Another Location

Airport:

Trip Planner

Search our weather history database for the weather conditions in past years. The results will help you decide how hot, cold, wet, or windy it might be!

Date:

Astronomy

Oct. 04, 2012 Rise Set
Actual Time 6:44 AM CDT 6:20 PM CDT
Civil Twilight 6:16 AM CDT 6:47 PM CDT
Nautical Twilight 5:45 AM CDT 7:19 PM CDT
Astronomical Twilight 5:13 AM CDT 7:51 PM CDT
Moon 8:54 PM CDT (10/4) 11:01 AM CDT (10/4)
Length of Visible Light 12h 30m
Length of Day
11h 36m
Waning Gibbous, 82% of the Moon is Illuminated
Oct 4
Waning Gibbous
Oct 8
Last Quarter
Oct 15
New
Oct 21
First Quarter
Oct 29
Full

Hourly Weather History & Observations

Time (CDT) Temp. Dew Point Humidity Pressure Visibility Wind Dir Wind Speed Gust Speed Precip Events Conditions
12:15 AM 59.0 °F 51.8 °F 77% 30.08 in 10.0 mi South 9.2 mph - N/A   Partly Cloudy
12:35 AM 57.2 °F 51.8 °F 82% 30.08 in 10.0 mi South 8.1 mph - N/A   Clear
12:55 AM 57.2 °F 51.8 °F 82% 30.08 in 10.0 mi South 8.1 mph - N/A   Clear
1:15 AM 57.2 °F 51.8 °F 82% 30.09 in 10.0 mi South 8.1 mph - N/A   Scattered Clouds
1:35 AM 57.2 °F 51.8 °F 82% 30.09 in 10.0 mi SSW 8.1 mph - N/A   Scattered Clouds
1:55 AM 57.2 °F 50.0 °F 77% 30.09 in 10.0 mi SSW 8.1 mph - N/A   Partly Cloudy
2:15 AM 57.2 °F 51.8 °F 82% 30.09 in 10.0 mi SSW 10.4 mph 17.3 mph N/A   Clear
2:35 AM 59.0 °F 50.0 °F 72% 30.09 in 10.0 mi SW 11.5 mph - N/A   Partly Cloudy
2:55 AM 59.0 °F 51.8 °F 77% 30.09 in 10.0 mi SW 8.1 mph - N/A   Mostly Cloudy
3:15 AM 59.0 °F 51.8 °F 77% 30.09 in 10.0 mi SW 8.1 mph - N/A   Mostly Cloudy
3:35 AM 59.0 °F 51.8 °F 77% 30.09 in 10.0 mi SW 9.2 mph - N/A   Scattered Clouds
3:55 AM 57.2 °F 50.0 °F 77% 30.10 in 10.0 mi SW 6.9 mph - N/A   Partly Cloudy
4:15 AM 57.2 °F 50.0 °F 77% 30.10 in 10.0 mi SW 5.8 mph - N/A   Clear
4:35 AM 55.4 °F 48.2 °F 77% 30.11 in 10.0 mi WSW 4.6 mph - N/A   Clear
4:55 AM 55.4 °F 48.2 °F 77% 30.11 in 10.0 mi WSW 4.6 mph - N/A   Clear
5:15 AM 53.6 °F 48.2 °F 82% 30.12 in 10.0 mi SW 4.6 mph - N/A   Clear
5:35 AM 53.6 °F 48.2 °F 82% 30.12 in 10.0 mi SW 4.6 mph - N/A   Clear
5:55 AM 53.6 °F 50.0 °F 88% 30.12 in 10.0 mi SSW 5.8 mph - N/A   Mostly Cloudy
6:15 AM 55.4 °F 51.8 °F 88% 30.13 in 10.0 mi SSW 5.8 mph - N/A   Overcast
6:35 AM 55.4 °F 51.8 °F 88% 30.12 in 10.0 mi South 5.8 mph - N/A   Overcast
6:55 AM 55.4 °F 51.8 °F 88% 30.12 in 10.0 mi South 5.8 mph - N/A   Overcast
7:15 AM 55.4 °F 51.8 °F 88% 30.13 in 10.0 mi South 4.6 mph - N/A   Overcast
7:35 AM 55.4 °F 51.8 °F 88% 30.13 in 10.0 mi South 6.9 mph - N/A   Overcast
7:55 AM 55.4 °F 51.8 °F 88% 30.13 in 10.0 mi South 8.1 mph - N/A   Overcast
8:15 AM 57.2 °F 51.8 °F 82% 30.13 in 10.0 mi South 5.8 mph - N/A   Mostly Cloudy
8:35 AM 59.0 °F 53.6 °F 82% 30.13 in 10.0 mi SSW 6.9 mph - N/A   Scattered Clouds
8:55 AM 60.8 °F 53.6 °F 77% 30.14 in 10.0 mi SW 8.1 mph - N/A   Partly Cloudy
9:15 AM 62.6 °F 53.6 °F 72% 30.15 in 10.0 mi SW 9.2 mph - N/A   Partly Cloudy
9:35 AM - - N/A% 30.14 in 10.0 mi SW 10.4 mph - N/A   Clear
9:55 AM - - N/A% 30.14 in 10.0 mi SW 11.5 mph - N/A   Clear
10:15 AM 69.8 °F 55.4 °F 60% 30.14 in 10.0 mi SW 9.2 mph - N/A   Clear
10:35 AM 69.8 °F 55.4 °F 60% 30.14 in 10.0 mi SW 11.5 mph - N/A   Clear
10:55 AM 71.6 °F 55.4 °F 57% 30.13 in 10.0 mi WSW 9.2 mph - N/A   Clear
11:15 AM 73.4 °F 55.4 °F 53% 30.13 in 10.0 mi SW 10.4 mph - N/A   Clear
11:35 AM 73.4 °F 55.4 °F 53% 30.12 in 10.0 mi SW 10.4 mph 16.1 mph N/A   Clear
11:55 AM 75.2 °F 57.2 °F 53% 30.12 in 10.0 mi SW 11.5 mph 16.1 mph N/A   Clear
12:15 PM 75.2 °F 57.2 °F 53% 30.11 in 10.0 mi WSW 10.4 mph 20.7 mph N/A   Clear
12:35 PM 77.0 °F 57.2 °F 50% 30.11 in 10.0 mi WSW 13.8 mph 21.9 mph N/A   Clear
12:55 PM 77.0 °F 55.4 °F 47% 30.10 in 10.0 mi WSW 15.0 mph - N/A   Partly Cloudy
1:35 PM 77.0 °F 55.4 °F 47% 30.08 in 10.0 mi WSW 18.4 mph 24.2 mph N/A   Partly Cloudy
1:55 PM 77.0 °F 53.6 °F 44% 30.08 in 10.0 mi WSW 21.9 mph 28.8 mph N/A   Clear
2:15 PM 78.8 °F 55.4 °F 44% 30.08 in 10.0 mi WSW 16.1 mph 25.3 mph N/A   Scattered Clouds
2:35 PM 78.8 °F 53.6 °F 42% 30.08 in 10.0 mi WSW 20.7 mph 29.9 mph N/A   Scattered Clouds
2:55 PM 78.8 °F 55.4 °F 44% 30.08 in 10.0 mi SW 23.0 mph 29.9 mph N/A   Partly Cloudy
3:15 PM 77.0 °F 55.4 °F 47% 30.08 in 10.0 mi WSW 20.7 mph 28.8 mph N/A   Scattered Clouds
3:35 PM - - N/A% 30.07 in 10.0 mi WSW 12.7 mph 25.3 mph N/A   Partly Cloudy
3:55 PM - - N/A% 30.07 in 10.0 mi SW 18.4 mph 23.0 mph N/A   Clear
4:15 PM 77.0 °F 55.4 °F 47% 30.07 in 10.0 mi WSW 17.3 mph 23.0 mph N/A   Scattered Clouds
4:35 PM 77.0 °F 55.4 °F 47% 30.07 in 10.0 mi WSW 11.5 mph - N/A   Partly Cloudy
4:55 PM 77.0 °F 55.4 °F 47% 30.06 in 10.0 mi SW 18.4 mph 21.9 mph N/A   Clear
5:15 PM 75.2 °F 55.4 °F 50% 30.06 in 10.0 mi SW 15.0 mph 23.0 mph N/A   Clear
5:35 PM 75.2 °F 55.4 °F 50% 30.06 in 10.0 mi SW 10.4 mph - N/A   Clear
5:55 PM 73.4 °F 55.4 °F 53% 30.06 in 10.0 mi SW 12.7 mph - N/A   Clear
6:15 PM 73.4 °F 53.6 °F 50% 30.07 in 10.0 mi SW 11.5 mph 17.3 mph N/A   Clear
6:35 PM 71.6 °F 53.6 °F 53% 30.07 in 10.0 mi SSW 10.4 mph - N/A   Clear
6:55 PM 71.6 °F 53.6 °F 53% 30.07 in 10.0 mi SSW 10.4 mph - N/A   Clear
7:15 PM 69.8 °F 55.4 °F 60% 30.07 in 10.0 mi SSW 8.1 mph - N/A   Clear
7:35 PM 69.8 °F 55.4 °F 60% 30.07 in 10.0 mi SSW 10.4 mph - N/A   Clear
7:55 PM 68.0 °F 55.4 °F 64% 30.07 in 10.0 mi SSW 9.2 mph - N/A   Scattered Clouds
8:15 PM 68.0 °F 55.4 °F 64% 30.07 in 10.0 mi SSW 10.4 mph - N/A   Mostly Cloudy
8:35 PM 68.0 °F 55.4 °F 64% 30.06 in 10.0 mi SSW 11.5 mph - N/A   Mostly Cloudy
8:55 PM 68.0 °F 55.4 °F 64% 30.07 in 10.0 mi SSW 12.7 mph - N/A   Mostly Cloudy
9:15 PM 68.0 °F 55.4 °F 64% 30.08 in 10.0 mi West 11.5 mph 17.3 mph N/A   Overcast
9:35 PM 68.0 °F 55.4 °F 64% 30.08 in 10.0 mi West 10.4 mph - N/A   Mostly Cloudy
9:55 PM 66.2 °F 55.4 °F 68% 30.09 in 10.0 mi SW 9.2 mph - N/A   Partly Cloudy
10:15 PM 64.4 °F 55.4 °F 73% 30.10 in 10.0 mi WSW 8.1 mph - N/A   Scattered Clouds
10:35 PM 66.2 °F 55.4 °F 68% 30.10 in 10.0 mi West 6.9 mph - N/A   Mostly Cloudy
10:55 PM 64.4 °F 55.4 °F 73% 30.11 in 10.0 mi NW 13.8 mph 17.3 mph N/A   Mostly Cloudy
11:15 PM 64.4 °F 53.6 °F 68% 30.11 in 10.0 mi NW 10.4 mph - N/A   Overcast
11:35 PM 62.6 °F 53.6 °F 72% 30.12 in 10.0 mi West 5.8 mph - N/A   Overcast
11:55 PM 62.6 °F 53.6 °F 72% 30.10 in 10.0 mi NW 12.7 mph 18.4 mph N/A   Mostly Cloudy